Location: Hokitika
(42.7170°S, 170.9670°E)
Time: 03:15:49
(UTC+13:00)

Cosmos 1633 Rocket - Pass Details

Date: 24 January 2019
Orbit: 607 x 624 km, 82.5° (Epoch: 22 February)

Event Time Altitude Azimuth Distance (km) Brightness Sun altitude
Rises 22:08:25 0° 194° (SSW) 2,913 7.4 -10.1°
Reaches altitude 10° 22:10:42 10° 199° (SSW) 2,001 6.6 -10.4°
Maximum altitude 22:14:59 49° 273° (W) 807 4.0 -11.0°
Drops below altitude 10° 22:19:12 10° 347° (NNW) 1,981 5.4 -11.6°
Enters shadow 22:21:27 - 353° (N) 2,872 6.2 -11.9°
